Location: Campestrin
(46.4667°N, 11.7167°E)
Time: 10:31:29
(UTC+00:00)

Cosmos 468 Rocket - Pass Details

Date: 18 April 2021
Orbit: 745 x 779 km, 74.0° (Epoch: 06 May)

Event Time Altitude Azimuth Distance (km) Brightness Sun altitude
Rises 21:36:59 0° 336° (NNW) 3,198 8.5 -28.6°
Reaches altitude 10° 21:39:21 10° 335° (NNW) 2,270 7.4 -28.7°
Enters shadow 21:43:44 62° 308° (NW) 840 4.3 -29.1°
